Indianapolis, IN

8:02 AM EDT on September 25, 2017 (GMT -0400)
Indianapolis Terry

Weather History for KTYQ - October, 2012

Change the Weather History Date:

Monday, October 8, 2012

  Actual Average (KEYE) Record (KEYE)
Temperature  
Mean Temperature 41 °F -  
Max Temperature 55 °F 65 °F 99 °F (2014)
Min Temperature 27 °F 45 °F 31 °F (2012)
Degree Days  
Heating Degree Days 24    
Moisture  
Dew Point 28 °F    
Average Humidity 67    
Maximum Humidity 92    
Minimum Humidity 30    
Precipitation  
Precipitation 0.00 in - - ()
Sea Level Pressure  
Sea Level Pressure 30.18 in    
Wind  
Wind Speed 2 mph (SSW)    
Max Wind Speed 10 mph    
Max Gust Speed -    
Visibility 10 miles    
Events      
Averages and records for this station are not official NWS values.
T = Trace of Precipitation, MM = Missing Value Source: NWS Daily Summary

Daily Weather History Graph

Daily Weather History Graph

Search for Another Location

Airport or City:

Trip Planner

Search our weather history database for the weather conditions in past years. The results will help you decide how hot, cold, wet, or windy it might be!

Date:

Astronomy

Oct. 08, 2012 Rise Set
Actual Time 7:48 AM EDT 7:15 PM EDT
Civil Twilight 7:21 AM EDT 7:42 PM EDT
Nautical Twilight 6:50 AM EDT 8:13 PM EDT
Astronomical Twilight 6:18 AM EDT 8:45 PM EDT
Moon 12:28 AM EDT (10/8) 3:04 PM EDT (10/8)
Length of Visible Light 12h 20m
Length of Day
11h 26m
Waning Gibbous, 46% of the Moon is Illuminated
Oct 8
Waning Gibbous
Oct 15
New
Oct 21
First Quarter
Oct 29
Full
Nov 6
Last Quarter

Hourly Weather History & Observations

Time (EDT) Temp. Windchill Dew Point Humidity Pressure Visibility Wind Dir Wind Speed Gust Speed Precip Events Conditions
12:15 AM 31.1 °F - 28.0 °F 88% 30.20 in 10.0 mi Calm Calm - N/A   Clear
12:35 AM 30.9 °F - 28.0 °F 89% 30.19 in 10.0 mi Calm Calm - N/A   Clear
12:55 AM 30.6 °F - 27.9 °F 90% 30.19 in 10.0 mi Calm Calm - N/A   Clear
1:15 AM 30.6 °F - 27.9 °F 90% 30.19 in 10.0 mi Calm Calm - N/A   Clear
1:35 AM 30.2 °F - 27.5 °F 90% 30.19 in 10.0 mi Calm Calm - N/A   Clear
1:55 AM 30.0 °F - 27.3 °F 90% 30.19 in 10.0 mi Calm Calm - N/A   Clear
2:15 AM 30.2 °F - 27.5 °F 90% 30.20 in 10.0 mi Calm Calm - N/A   Clear
2:35 AM 30.7 °F - 28.0 °F 90% 30.21 in 10.0 mi Calm Calm - N/A   Clear
2:55 AM 30.7 °F - 28.0 °F 90% 30.21 in 10.0 mi Calm Calm - N/A   Clear
3:15 AM 30.4 °F - 27.7 °F 90% 30.21 in 10.0 mi Calm Calm - N/A   Clear
3:35 AM 29.8 °F - 27.3 °F 90% 30.21 in 10.0 mi Calm Calm - N/A   Clear
3:55 AM 29.8 °F - 27.3 °F 90% 30.21 in 10.0 mi Calm Calm - N/A   Clear
4:15 AM 29.1 °F - 26.4 °F 90% 30.21 in 10.0 mi Calm Calm - N/A   Clear
4:35 AM 29.1 °F - 26.6 °F 90% 30.21 in 10.0 mi Calm Calm - N/A   Clear
4:55 AM 28.9 °F - 26.4 °F 90% 30.20 in 10.0 mi Calm Calm - N/A   Clear
5:15 AM 28.8 °F - 26.2 °F 90% 30.21 in 10.0 mi Calm Calm - N/A   Clear
5:35 AM 28.4 °F - 25.9 °F 90% 30.21 in 10.0 mi Calm Calm - N/A   Clear
5:55 AM 28.2 °F - 25.7 °F 90% 30.21 in 10.0 mi Calm Calm - N/A   Clear
6:35 AM 28.0 °F - 25.5 °F 90% 30.22 in 10.0 mi Calm Calm - N/A   Clear
6:55 AM 27.5 °F - 25.2 °F 91% 30.21 in 10.0 mi Calm Calm - N/A   Clear
7:15 AM 27.5 °F - 24.8 °F 90% 30.21 in 10.0 mi Calm Calm - N/A   Clear
7:35 AM 27.5 °F - 25.0 °F 90% 30.21 in 10.0 mi Calm Calm - N/A   Clear
7:55 AM 27.1 °F - 24.6 °F 90% 30.22 in 10.0 mi Calm Calm - N/A   Clear
8:15 AM 27.7 °F - 25.3 °F 91% 30.22 in 10.0 mi Calm Calm - N/A   Clear
8:35 AM 30.0 °F - 27.3 °F 90% 30.22 in 10.0 mi Calm Calm - N/A   Clear
8:55 AM 32.2 °F - 30.0 °F 92% 30.23 in 10.0 mi Calm Calm - N/A   Clear
9:15 AM 35.4 °F - 32.5 °F 89% 30.23 in 10.0 mi Calm Calm - N/A   Clear
9:35 AM 38.5 °F 36.1 °F 34.3 °F 85% 30.24 in 10.0 mi South 3.5 mph - N/A   Clear
9:55 AM 41.9 °F 38.2 °F 34.3 °F 75% 30.24 in 10.0 mi South 5.8 mph - N/A   Clear
10:15 AM 44.6 °F 41.4 °F 33.6 °F 65% 30.24 in 10.0 mi South 5.8 mph - N/A   Clear
10:35 AM 45.7 °F 42.0 °F 31.1 °F 57% 30.25 in 10.0 mi South 6.9 mph - N/A   Clear
10:55 AM 47.3 °F - 30.4 °F 52% 30.24 in 10.0 mi South 8.1 mph - N/A   Clear
11:15 AM 48.2 °F - 28.9 °F 47% 30.24 in 10.0 mi SSW 8.1 mph - N/A   Clear
11:35 AM 49.3 °F - 27.5 °F 43% 30.24 in 10.0 mi South 6.9 mph - N/A   Clear
11:55 AM 49.6 °F - 27.5 °F 42% 30.23 in 10.0 mi South 8.1 mph - N/A   Clear
12:15 PM 50.2 °F - 26.2 °F 39% 30.23 in 10.0 mi SSW 4.6 mph - N/A   Clear
12:35 PM 50.7 °F - 26.1 °F 38% 30.23 in 10.0 mi South 5.8 mph - N/A   Clear
12:55 PM 51.1 °F - 26.2 °F 38% 30.22 in 10.0 mi Calm Calm - N/A   Clear
1:15 PM 51.8 °F - 26.1 °F 37% 30.21 in 10.0 mi SW 4.6 mph - N/A   Clear
1:35 PM 52.5 °F - 24.6 °F 34% 30.20 in 10.0 mi South 5.8 mph - N/A   Clear
1:55 PM 53.1 °F - 26.2 °F 35% 30.19 in 10.0 mi WSW 5.8 mph - N/A   Clear
2:15 PM 53.8 °F - 24.6 °F 32% 30.18 in 10.0 mi WSW 4.6 mph - N/A   Clear
2:35 PM 54.5 °F - 25.5 °F 33% 30.17 in 10.0 mi South 8.1 mph - N/A   Clear
2:55 PM 54.3 °F - 24.8 °F 32% 30.16 in 10.0 mi SW 4.6 mph - N/A   Clear
3:15 PM 55.0 °F - 24.1 °F 30% 30.16 in 10.0 mi SW 5.8 mph - N/A   Clear
3:35 PM 55.2 °F - 26.2 °F 33% 30.15 in 10.0 mi SW 10.4 mph - N/A   Clear
3:55 PM 55.0 °F - 24.3 °F 30% 30.14 in 10.0 mi South 4.6 mph - N/A   Clear
4:15 PM 55.4 °F - 25.0 °F 31% 30.14 in 10.0 mi West 6.9 mph - N/A   Clear
4:35 PM 55.6 °F - 24.8 °F 30% 30.14 in 10.0 mi South 8.1 mph - N/A   Clear
4:55 PM 55.0 °F - 24.3 °F 30% 30.13 in 10.0 mi SSW 9.2 mph - N/A   Clear
5:15 PM 55.0 °F - 23.5 °F 30% 30.13 in 10.0 mi South 5.8 mph - N/A   Clear
5:35 PM 54.7 °F - 23.7 °F 30% 30.12 in 10.0 mi South 4.6 mph - N/A   Clear
5:55 PM 54.5 °F - 24.8 °F 32% 30.12 in 10.0 mi South 5.8 mph - N/A   Clear
6:15 PM 54.0 °F - 25.7 °F 34% 30.12 in 10.0 mi South 5.8 mph - N/A   Clear
6:35 PM 53.2 °F - 26.2 °F 35% 30.12 in 10.0 mi South 5.8 mph - N/A   Clear
6:55 PM 51.3 °F - 27.9 °F 40% 30.12 in 10.0 mi South 4.6 mph - N/A   Clear
7:15 PM 48.4 °F - 29.3 °F 48% 30.12 in 10.0 mi South 4.6 mph - N/A   Clear
7:55 PM 42.6 °F 40.9 °F 32.0 °F 66% 30.11 in 10.0 mi SSE 3.5 mph - N/A   Clear
8:15 PM 41.0 °F - 32.0 °F 70% 30.11 in 10.0 mi Calm Calm - N/A   Clear
8:35 PM 40.3 °F - 32.0 °F 72% 30.12 in 10.0 mi Calm Calm - N/A   Clear
8:55 PM 37.4 °F - 32.2 °F 81% 30.12 in 10.0 mi Calm Calm - N/A   Clear
9:15 PM 37.2 °F - 32.5 °F 83% 30.13 in 10.0 mi Calm Calm - N/A   Clear
9:35 PM 35.8 °F 33.0 °F 31.5 °F 84% 30.14 in 10.0 mi SSE 3.5 mph - N/A   Clear
9:55 PM 35.6 °F 32.8 °F 32.0 °F 87% 30.14 in 10.0 mi South 3.5 mph - N/A   Clear
10:15 PM 35.2 °F 32.4 °F 31.8 °F 87% 30.14 in 10.0 mi SSE 3.5 mph - N/A   Clear
10:35 PM 34.7 °F 31.8 °F 30.9 °F 86% 30.14 in 10.0 mi South 3.5 mph - N/A   Clear
10:55 PM 33.8 °F - 30.9 °F 89% 30.14 in 10.0 mi Calm Calm - N/A   Clear
11:15 PM 34.2 °F - 30.6 °F 87% 30.13 in 10.0 mi Calm Calm - N/A   Clear
11:55 PM 33.3 °F - 30.4 °F 89% 30.13 in 10.0 mi Calm Calm - N/A   Clear